Location: Gleizolles
(44.4833°N, 6.7667°E)
Time: 12:55:50
(UTC+00:00)

A-11 Canister half - Pass Details

Date: 16 June 2024
Orbit: 1515 x 1684 km, 47.2° (Epoch: 24 July)

Event Time Altitude Azimuth Distance (km) Brightness Sun altitude
Rises 23:25:29 0° 288° (WNW) 4,861 11.9 -22.1°
Reaches altitude 10° 23:28:39 10° 288° (WNW) 3,852 11.3 -22.1°
Maximum altitude 23:38:29 86° 202° (SSW) 1,585 8.9 -22.1°
Drops below altitude 10° 23:47:55 10° 115° (ESE) 3,713 10.8 -22.1°
Sets 23:50:55 0° 115° (ESE) 4,679 11.3 -22.0°
